Hyannis, MA

11:49 AM EDT on August 20, 2017 (GMT -0400)
Barnstable Municipal-Boardman-Polando Field

Weather History for KHYA - July, 2013

Change the Weather History Date:

Monday, July 1, 2013

  Actual Average Record
Temperature  
Mean Temperature 72 °F -  
Max Temperature 75 °F 75 °F 95 °F (1964)
Min Temperature 69 °F 60 °F 49 °F (1988)
Cooling Degree Days 7    
Growing Degree Days 22 (Base 50)    
Moisture  
Dew Point 70 °F    
Average Humidity 94    
Maximum Humidity 100    
Minimum Humidity 84    
Precipitation  
Precipitation 0.12 in - - ()
Sea Level Pressure  
Sea Level Pressure 30.05 in    
Wind  
Wind Speed 10 mph (SSW)    
Max Wind Speed 14 mph    
Max Gust Speed 24 mph    
Visibility 6 miles    
Events Rain    
Averages and records for this station are not official NWS values.
T = Trace of Precipitation, MM = Missing Value Source: NWS Daily Summary

Daily Weather History Graph

Daily Weather History Graph

Search for Another Location

Airport or City:

Trip Planner

Search our weather history database for the weather conditions in past years. The results will help you decide how hot, cold, wet, or windy it might be!

Date:

Astronomy

Jul. 01, 2013 Rise Set
Actual Time 5:10 AM EDT 8:19 PM EDT
Civil Twilight 4:36 AM EDT 8:53 PM EDT
Nautical Twilight 3:53 AM EDT 9:36 PM EDT
Astronomical Twilight 3:00 AM EDT 10:28 PM EDT
Moon 12:41 AM EDT (7/1) 2:28 PM EDT (7/1)
Length of Visible Light 16h 16m
Length of Day
15h 08m
Waning Crescent, 35% of the Moon is Illuminated
Jul 1
Waning Crescent
Jul 8
New
Jul 15
First Quarter
Jul 22
Full
Jul 29
Last Quarter

Hourly Weather History & Observations

Time (EDT) Temp. Dew Point Humidity Pressure Visibility Wind Dir Wind Speed Gust Speed Precip Events Conditions
12:06 AM 69.8 °F 69.8 °F 100% 29.98 in 7.0 mi SSW 9.2 mph 18.4 mph N/A   Overcast
12:56 AM 70.0 °F 68.0 °F 93% 29.99 in 6.0 mi South 10.4 mph - 0.00 in Rain Light Rain
1:56 AM 69.1 °F 68.0 °F 96% 29.99 in 7.0 mi SSW 9.2 mph 17.3 mph 0.00 in   Overcast
2:12 AM 69.8 °F 68.0 °F 94% 29.98 in 8.0 mi SSW 9.2 mph 18.4 mph N/A   Overcast
2:56 AM 70.0 °F 68.0 °F 93% 29.99 in 8.0 mi SW 10.4 mph - N/A   Overcast
3:46 AM 69.8 °F 69.8 °F 100% 29.98 in 2.5 mi SW 10.4 mph - 0.05 in Rain Light Rain
3:53 AM 69.8 °F 69.8 °F 100% 29.97 in 7.0 mi SW 12.7 mph 19.6 mph 0.05 in   Overcast
3:56 AM 70.0 °F 69.1 °F 97% 29.98 in 8.0 mi SW 11.5 mph 19.6 mph 0.05 in   Overcast
4:08 AM 69.8 °F 69.8 °F 100% 29.98 in 7.0 mi SW 11.5 mph - N/A   Overcast
4:56 AM 70.0 °F 69.1 °F 97% 29.99 in 6.0 mi SW 8.1 mph - 0.00 in Rain Light Rain
5:56 AM 70.0 °F 69.1 °F 97% 30.01 in 5.0 mi SSW 10.4 mph - 0.00 in   Overcast
6:56 AM 70.0 °F 69.1 °F 97% 30.02 in 5.0 mi SSW 6.9 mph - N/A   Overcast
7:26 AM 71.6 °F 69.8 °F 94% 30.02 in 1.5 mi SSW 9.2 mph - N/A   Overcast
7:56 AM 71.1 °F 70.0 °F 96% 30.02 in 1.5 mi SSW 10.4 mph - 0.02 in Rain Light Rain
8:00 AM 71.6 °F 69.8 °F 94% 30.01 in 3.0 mi SSW 8.1 mph - 0.01 in Rain Rain
8:56 AM 71.1 °F 70.0 °F 96% 30.04 in 6.0 mi SSW 10.4 mph - 0.02 in   Overcast
9:56 AM 71.1 °F 70.0 °F 96% 30.04 in 2.0 mi SSW 9.2 mph - N/A   Overcast
10:56 AM 72.0 °F 70.0 °F 93% 30.04 in 2.0 mi South 9.2 mph 18.4 mph 0.03 in   Overcast
11:03 AM 71.6 °F 69.8 °F 94% 30.04 in 7.0 mi SSW 13.8 mph - N/A   Overcast
11:56 AM 72.0 °F 70.0 °F 93% 30.05 in 6.0 mi South 11.5 mph 20.7 mph N/A   Overcast
12:56 PM 73.0 °F 71.1 °F 93% 30.06 in 5.0 mi SW 13.8 mph 19.6 mph N/A   Overcast
1:56 PM 73.9 °F 71.1 °F 91% 30.06 in 6.0 mi SSW 10.4 mph 21.9 mph 0.00 in Rain Light Rain
2:56 PM 75.0 °F 71.1 °F 87% 30.05 in 7.0 mi SSW 12.7 mph 21.9 mph 0.00 in   Overcast
3:56 PM 75.0 °F 70.0 °F 84% 30.06 in 10.0 mi SSW 11.5 mph 20.7 mph N/A   Overcast
4:21 PM 73.4 °F 69.8 °F 88% 30.05 in 9.0 mi SSW 12.7 mph 21.9 mph N/A   Overcast
4:56 PM 72.0 °F 69.1 °F 91% 30.06 in 7.0 mi SSW 12.7 mph 24.2 mph 0.00 in   Overcast
5:56 PM 72.0 °F 69.1 °F 91% 30.06 in 7.0 mi SSW 10.4 mph - 0.00 in   Overcast
6:56 PM 72.0 °F 69.1 °F 91% 30.07 in 7.0 mi SSW 10.4 mph - 0.00 in   Overcast
7:56 PM 71.1 °F 69.1 °F 93% 30.08 in 6.0 mi SSW 8.1 mph - N/A   Overcast
8:56 PM 71.1 °F 69.1 °F 93% 30.11 in 8.0 mi SSW 10.4 mph 20.7 mph N/A   Overcast
9:47 PM 71.6 °F 69.8 °F 94% 30.12 in 8.0 mi SSW 9.2 mph - 0.00 in   Mostly Cloudy
9:56 PM 72.0 °F 70.0 °F 93% 30.12 in 8.0 mi SSW 8.1 mph - 0.00 in   Overcast
10:42 PM 71.6 °F 69.8 °F 94% 30.12 in 9.0 mi SSW 10.4 mph - N/A   Overcast
10:56 PM 72.0 °F 69.1 °F 91% 30.12 in 9.0 mi SSW 11.5 mph - N/A   Overcast
11:05 PM 71.6 °F 69.8 °F 94% 30.12 in 9.0 mi SSW 11.5 mph - N/A   Overcast
11:14 PM 71.6 °F 69.8 °F 94% 30.11 in 9.0 mi SSW 9.2 mph - N/A   Mostly Cloudy
11:22 PM 71.6 °F 69.8 °F 94% 30.12 in 9.0 mi SSW 9.2 mph - N/A   Overcast
11:56 PM 71.1 °F 68.0 °F 90% 30.12 in 8.0 mi SSW 10.4 mph - N/A   Overcast